This is the latest recevied weather packets stored in our database for station/object AE5HO. If no packets are shown the sender has not sent any weather packets the latest 10 day(s).
| Time | Temp. | Humidity | Pressure | Rain* | Wind** | Luminosity | Snow |
|---|---|---|---|---|---|---|---|
| 1787925320 | 28.33° C | 75% | 1018.7 hPa | 0 mm | - | 37 W/m² | - |
| 1787925019 | 28.33° C | 76% | 1018.8 hPa | 0 mm | - | 35 W/m² | - |
| 1787924714 | 27.78° C | 76% | 1019.1 hPa | 0 mm | - | 34 W/m² | - |
| 1787924408 | 27.78° C | 77% | 1018.4 hPa | 0 mm | - | 33 W/m² | - |
| 1787924109 | 27.78° C | 77% | 1018.5 hPa | 0 mm | - | 31 W/m² | - |
| 1787923803 | 27.22° C | 77% | 1018.6 hPa | 0 mm | - | 29 W/m² | - |
| 1787923498 | 27.22° C | 78% | 1018.8 hPa | 0 mm | - | 28 W/m² | - |
| 1787923194 | 26.67° C | 80% | 1018.7 hPa | 0 mm | - | 27 W/m² | - |
| 1787922889 | 26.67° C | 81% | 1018.9 hPa | 0 mm | - | 24 W/m² | - |
| 1787922588 | 26.11° C | 81% | 1018.6 hPa | 0 mm | - | 23 W/m² | - |
| 1787922287 | 25.56° C | 81% | 1018.4 hPa | 0 mm | - | 22 W/m² | - |
| 1787921983 | 25.56° C | 82% | 1018.4 hPa | 0 mm | - | 21 W/m² | - |
| 1787921679 | 25° C | 83% | 1018.4 hPa | 0 mm | - | 18 W/m² | - |
| 1787921379 | 25° C | 83% | 1018.8 hPa | 0 mm | - | 17 W/m² | - |
| 1787921075 | 25° C | 83% | 1018.1 hPa | 0 mm | - | 16 W/m² | - |
| 1787920774 | 24.44° C | 83% | 1018.1 hPa | 0 mm | - | 12 W/m² | - |
| 1787920469 | 24.44° C | 83% | 1018.2 hPa | 0 mm | - | 11 W/m² | - |
| 1787920166 | 24.44° C | 83% | 1017.9 hPa | 0 mm | - | 9 W/m² | - |
| 1787919866 | 24.44° C | 84% | 1017.9 hPa | 0 mm | - | 5 W/m² | - |
| 1787919565 | 23.89° C | 84% | 1017.8 hPa | 0 mm | - | 4 W/m² | - |
| 1787919261 | 23.89° C | 84% | 1017.8 hPa | 0 mm | - | 2 W/m² | - |
| 1787918957 | 23.89° C | 84% | 1017.9 hPa | 0 mm | - | 0 W/m² | - |
| 1787918651 | 23.89° C | 84% | 1017.9 hPa | 0 mm | - | 0 W/m² | - |
| 1787918350 | 24.44° C | 85% | 1017.6 hPa | 0 mm | - | 0 W/m² | - |
| 1787918050 | 24.44° C | 84% | 1017.7 hPa | 0 mm | - | 0 W/m² | - |
* Rain latest hour (hover to see other rain measurements)
** Current wind speed in m/s (hover to see current wind gust speed)